Home > Time Zones > World Clock > Weather > Egypt > Cairo > Past weeks

Flag for Egypt Weather past 2 weeks in Cairo, Egypt

Now
84 °F

Clear.


Feels Like: 90 °F
Forecast: 75 / 101 °F
Wind: 8 mph from North

Location: Cairo Airport

Current Time: Jul 29, 2015 at 10:44:02 PM

Latest Report: Jul 29, 2015 at 10:00 PM


Visibility: 10 mi

Pressure: 29.74 "Hg

Humidity: 66%

Dew point: 72 °F

Location of CairoLocation

Historic Weather in Cairo — Graph

°F

Cairo temperature yesterday

Maximum temperature yesterday: 97 °F (at 4:00 PM)
Minimum temperature yesterday: 77 °F (at 5:00 AM)
Average temperature yesterday: 87 °F

Past Weeks' High & Low Weather Summary

 TemperatureHumidityPressure
High106 °F (Jul 24, 1:00 PM)100% (Jul 16, 5:00 AM)29.86 "Hg (Jul 16, 5:00 AM)
Low73 °F (Jul 15, 5:00 AM)9% (Jul 24, 1:00 PM)29.68 "Hg (Jul 20, 2:00 PM)
Average86 °F50%29.76 "Hg
* Reported Jul 14 9:00 PM — Jul 29 9:30 PM, Cairo, Weather by CustomWeather, © 2015

Note: Actual official high and low records may vary slightly from our data, if they occured in-between our weather recording intervals... More about our weather records

Advertising

Cairo weather history for previous 24 hours

 ConditionsComfort  
Time TempWeatherWind HumidityBarometerVisibility
9:30 PM
Wed, Jul 29
86 °FClear.7 mph49%29.74 "Hg10 mi
9:00 PM88 °FClear.7 mph43%29.74 "Hg10 mi
8:30 PM88 °FClear.7 mph49%29.71 "Hg10 mi
8:00 PM90 °FClear.7 mph41%29.71 "Hg10 mi
7:30 PM90 °FClear.6 mph36%29.71 "Hg10 mi
7:00 PM91 °FClear.7 mph32%29.68 "Hg10 mi
6:30 PM91 °FSunny.6 mph34%29.68 "Hg10 mi
6:00 PM93 °FSunny.5 mph34%29.68 "Hg10 mi
5:30 PM93 °FSunny.6 mph36%29.68 "Hg10 mi
5:00 PM95 °FSunny.5 mph30%29.68 "Hg10 mi
4:30 PM95 °FSunny.3 mph28%29.68 "Hg10 mi
4:00 PM97 °FSunny.3 mph22%29.68 "Hg10 mi
3:30 PM97 °FSunny.3 mph23%29.68 "Hg10 mi
3:00 PM95 °FSunny.3 mph26%29.68 "Hg10 mi
2:30 PM95 °FSunny.3 mph30%29.68 "Hg10 mi
2:00 PM95 °FExtremely hot.N/A30%29.68 "HgN/A
1:30 PM95 °FSunny.1 mph30%29.68 "Hg10 mi
1:00 PM93 °FSunny.2 mph34%29.71 "Hg10 mi
12:30 PM93 °FSunny.5 mph30%29.71 "Hg10 mi
12:00 PM91 °FSunny.3 mph34%29.71 "Hg10 mi
11:30 AM91 °FSunny.No wind36%29.74 "Hg10 mi
11:00 AM90 °FSunny.2 mph38%29.74 "Hg10 mi
10:30 AM88 °FSunny.2 mph46%29.74 "Hg10 mi
9:30 AM84 °FSunny.No wind51%29.74 "Hg10 mi
9:00 AM82 °FSunny.2 mph62%29.74 "Hg10 mi
8:30 AM79 °FSunny.3 mph79%29.74 "Hg10 mi
8:00 AM79 °FSunny.3 mph79%29.74 "Hg10 mi
7:30 AM79 °FSunny.6 mph79%29.74 "Hg10 mi
7:00 AM77 °FSunny.6 mph83%29.74 "Hg10 mi
6:30 AM77 °FClear.5 mph83%29.71 "Hg4 mi
6:00 AM75 °FClear.5 mph89%29.71 "Hg4 mi
5:00 AM77 °FClear.5 mph83%29.71 "Hg10 mi
4:53 AM77 °FClear.5 mph83%29.71 "Hg10 mi
4:30 AM77 °FClear.5 mph79%29.71 "Hg10 mi
4:00 AM77 °FClear.5 mph83%29.71 "Hg10 mi
3:30 AM77 °FClear.5 mph83%29.71 "Hg10 mi
3:00 AM77 °FClear.5 mph83%29.71 "Hg10 mi
2:30 AM77 °FClear.5 mph83%29.71 "Hg10 mi
2:00 AM79 °FClear.7 mph79%29.71 "Hg10 mi
1:30 AM79 °FClear.6 mph79%29.71 "Hg10 mi
1:00 AM79 °FClear.6 mph79%29.71 "Hg10 mi
12:30 AM79 °FClear.7 mph79%29.71 "Hg10 mi
12:00 AM79 °FClear.8 mph79%29.74 "Hg10 mi
11:30 PM
Tue, Jul 28
81 °FClear.12 mph74%29.74 "Hg10 mi
11:00 PM81 °FClear.12 mph74%29.74 "Hg10 mi
10:30 PM82 °FClear.10 mph70%29.74 "Hg10 mi
10:00 PM82 °FClear.10 mph70%29.74 "Hg10 mi
Weather by CustomWeather, © 2015

See weather overviewHow to use our weather pages